Home   Weather   United Kingdom   Preston   Past weeks
Flag for United Kingdom

Past Weather in Preston, England, United Kingdom — June 2018

Currently: 63 °F. Passing clouds. (Weather station: Liverpool Airport, United Kingdom). See more current weather

June 2018 Weather in Preston — Graph

°F

High & Low Weather Summary for June 2018

 TemperatureHumidityPressure
High86 °F (Jun 26, 2:50 pm)100% (Jun 1, 11:50 pm)30.48 "Hg (Jun 1, 11:50 pm)
Low48 °F (Jun 6, 3:50 am)13% (Jun 28, 6:20 pm)29.53 "Hg (Jun 14, 6:20 am)
Average63 °F68%30.10 "Hg
* Reported Jun 1 12:20 am — Jun 30 11:50 pm, Preston. Weather by CustomWeather, © 2021

Note: Actual official high and low records may vary slightly from our data, if they occured in-between our weather recording intervals... More about our weather records

Preston Weather History for June 1, 2018

Scroll right to see more
 ConditionsComfort  
Time TempWeatherWind HumidityBarometerVisibility
12:20 am
Fri, Jun 1
64 °FPassing clouds.7 mph83%30.01 "HgN/A
12:50 am64 °FPassing clouds.7 mph88%30.01 "HgN/A
1:20 am63 °FPassing clouds.7 mph94%30.01 "HgN/A
1:50 am63 °FPassing clouds.6 mph94%30.04 "HgN/A
2:20 am63 °FPassing clouds.6 mph94%30.01 "HgN/A
2:50 am63 °FPassing clouds.6 mph94%30.01 "HgN/A
3:20 am63 °FPassing clouds.6 mph88%30.01 "HgN/A
3:50 am63 °FPassing clouds.7 mph88%30.01 "HgN/A
4:20 am61 °FPassing clouds.6 mph94%30.01 "Hg6 mi
4:50 am61 °FPassing clouds.3 mph94%30.01 "Hg6 mi
5:20 am63 °FPassing clouds.5 mph94%30.01 "Hg6 mi
5:50 am61 °FScattered clouds.6 mph94%30.01 "Hg6 mi
6:20 am61 °FScattered clouds.6 mph88%30.04 "Hg6 mi
6:50 am63 °FBroken clouds.2 mph88%30.04 "Hg6 mi
7:20 am63 °FPartly sunny.5 mph88%30.04 "Hg6 mi
7:50 am64 °FPartly sunny.6 mph83%30.04 "Hg5 mi
8:20 am64 °FScattered clouds.6 mph83%30.04 "Hg5 mi
8:50 am68 °FPassing clouds.5 mph78%30.04 "Hg6 mi
9:20 am66 °FPassing clouds.6 mph78%30.04 "Hg6 mi
9:50 am68 °FPassing clouds.6 mph83%30.04 "Hg6 mi
10:20 am68 °FBroken clouds.7 mph83%30.04 "Hg4 mi
10:50 am66 °FBroken clouds.7 mph83%30.04 "Hg4 mi
11:20 am68 °FBroken clouds.7 mph78%30.04 "Hg4 mi
11:50 am68 °FBroken clouds.6 mph78%30.04 "Hg6 mi
12:20 pm70 °FBroken clouds.7 mph73%30.04 "Hg6 mi
12:50 pm70 °FBroken clouds.3 mph78%30.04 "Hg6 mi
1:20 pm70 °FBroken clouds.5 mph73%30.04 "HgN/A
1:50 pm72 °FScattered clouds.5 mph73%30.04 "HgN/A
2:20 pm75 °FScattered clouds.6 mph61%30.04 "HgN/A
2:50 pm73 °FScattered clouds.5 mph65%30.01 "HgN/A
3:20 pm75 °FScattered clouds.5 mph57%30.01 "HgN/A
3:50 pm75 °FScattered clouds.6 mph57%30.01 "HgN/A
4:20 pm75 °FScattered clouds.5 mph61%30.01 "HgN/A
4:50 pm73 °FScattered clouds.3 mph61%30.01 "HgN/A
5:20 pm73 °FScattered clouds.3 mph61%30.01 "HgN/A
5:50 pm70 °FScattered showers. Scattered clouds.12 mph73%30.01 "HgN/A
6:20 pm66 °FScattered showers. Scattered clouds.13 mph83%30.01 "Hg6 mi
6:50 pm66 °FScattered showers. Broken clouds.12 mph83%30.04 "Hg6 mi
7:50 pm66 °FScattered showers. Scattered clouds.9 mph83%30.04 "Hg6 mi
8:20 pm64 °FScattered clouds.9 mph83%30.04 "Hg6 mi
8:50 pm66 °FScattered clouds.7 mph78%30.04 "Hg6 mi
9:20 pm66 °FPassing clouds.9 mph78%30.04 "Hg4 mi
9:50 pm64 °FPassing clouds.7 mph83%30.07 "Hg4 mi
10:20 pm63 °FPassing clouds.7 mph88%30.04 "Hg4 mi
10:50 pm63 °FPassing clouds.9 mph88%30.04 "Hg4 mi
11:20 pm61 °FPassing clouds.10 mph94%30.07 "Hg4 mi
11:50 pm61 °FPassing clouds.10 mph100%30.07 "Hg4 mi
Weather by CustomWeather, © 2021

See weather overview